This demonstration page uses our WeatherBlox Daily Observations layout. Learn more.

Left ArrowRight Arrow

39.92423, -83.80882

Hourly Observations for September 30, 2015

Temp ( °F °C ) Dew Point ( °F °C ) Humidity (%) Winds ( mph kmh ) Pressure ( in mb ) Visibility ( mi km ) Precip ( " mm )
12:56 am 00:56 Cloudy 61 16.1 58 14.4 90 90 NNE 14 22 29.93 1014 10 16 N/A
1:06 am 01:06 Cloudy 61 16 57 14 88 88 N 17 28 29.94 1014 10 16 N/A
1:56 am 01:56 Cloudy 61 16.1 57 13.8 86 86 N 13 20 29.95 1014 10 16 N/A
2:56 am 02:56 Cloudy 60 15.5 58 14.4 93 93 NNE 14 22 29.94 1014 10 16 N/A
3:07 am 03:07 Cloudy 61 16 57 14 88 88 N 15 24 29.97 1015 10 16 N/A
3:49 am 03:49 Cloudy 61 16 57 14 88 88 N 13 20 29.94 1014 10 16 N/A
3:56 am 03:56 Cloudy 60 15.5 57 13.8 90 90 NNE 10 17 29.93 1014 10 16 N/A
4:41 am 04:41 Cloudy 61 16 57 14 88 88 N 12 19 29.97 1015 10 16 N/A
4:56 am 04:56 Cloudy 59 15 57 13.8 93 93 N 8 13 29.95 1014 10 16 N/A
5:56 am 05:56 Cloudy 58 14.4 55 12.7 90 90 N 10 17 29.96 1015 10 16 N/A
6:56 am 06:56 Cloudy 57 13.8 55 12.7 93 93 N 9 15 29.97 1015 10 16 N/A
7:08 am 07:08 Cloudy 57 14 55 13 94 94 N 9 15 30.00 1016 10 16 N/A
7:56 am 07:56 Cloudy 57 13.8 54 12.2 90 90 NNW 12 19 29.99 1016 10 16 N/A
8:56 am 08:56 Cloudy 57 13.8 55 12.7 93 93 N 12 19 30.01 1016 10 16 N/A
9:56 am 09:56 Cloudy 59 15 55 12.7 86 86 N 9 15 30.02 1017 10 16 N/A
10:56 am 10:56 Cloudy 60 15.5 56 13.3 87 87 NNE 12 19 30.04 1017 10 16 N/A
11:20 am 11:20 Cloudy 61 16 55 13 83 83 NNE 14 22 30.06 1018 10 16 N/A
11:56 am 11:56 Cloudy 63 17.2 56 13.3 78 78 NNE 17 28 30.05 1018 10 16 N/A
12:56 pm 12:56 Cloudy 64 17.7 55 12.7 73 73 NNE 17 28 30.05 1018 10 16 N/A
1:56 pm 13:56 Cloudy 67 19.4 55 12.7 65 65 NNE 16 26 30.06 1018 10 16 N/A
2:56 pm 14:56 Mostly Cloudy 67 19.4 54 12.2 63 63 NNE 15 24 30.05 1018 10 16 N/A
3:03 pm 15:03 Partly Cloudy 66 19 54 12 64 64 NNE 16 26 30.03 1017 10 16 N/A
3:56 pm 15:56 Sunny 66 18.8 53 11.6 63 63 NE 15 24 30.04 1017 10 16 N/A
4:56 pm 16:56 Sunny 69 20.5 52 11.1 55 55 NNE 14 22 30.04 1017 10 16 N/A
5:56 pm 17:56 Mostly Cloudy 65 18.3 51 10.5 61 61 NE 17 28 30.04 1017 10 16 N/A
6:56 pm 18:56 Partly Cloudy 63 17.2 51 10.5 65 65 NNE 15 24 30.06 1018 10 16 N/A
7:56 pm 19:56 Clear 60 15.5 49 9.4 67 67 NE 14 22 30.08 1019 10 16 N/A
8:56 pm 20:56 Clear 59 15 49 9.4 69 69 NE 16 26 30.09 1019 10 16 N/A
9:56 pm 21:56 Clear 58 14.4 49 9.4 72 72 NE 16 26 30.10 1019 10 16 N/A
10:56 pm 22:56 Clear 56 13.3 49 9.4 77 77 NE 10 17 30.11 1020 10 16 N/A
11:56 pm 23:56 Clear 55 12.7 49 9.4 81 81 NE 12 19 30.10 1019 10 16 N/A

Powered by AerisWeather